User: anonymous   Login
Location: Campo Alegre
(10.4289°N, 66.6519°W)
Time: 14:19:19
(UTC+00:00)
Language:

Cosmos 1378 - Orbit

View from above orbital plane
View from above orbital plane
View from above satellite
View from above satellite

Ground track
Ground track

The orbit data is extracted from the following two-line orbital elements,

1 13271U 82059A   24198.92861683  .00048899  00000-0  80899-3 0  9990
2 13271  82.4532 121.6159 0004847 135.9346 224.2293 15.51986759304343
Epoch (UTC): 16 July 2024 22:17:12
Eccentricity: 0.0004847
inclination: 82.4532°
perigee height: 407 km
apogee height: 414 km
right ascension of ascending node: 121.6159°
argument of perigee: 135.9346°
revolutions per day: 15.51986759
mean anomaly at epoch: 224.2293°
orbit number at epoch: 30434

The dashed part of the orbit path shows where the satellite is in the earth's shadow,  

DLR